Location: Trebic
(49.2170°N, 15.8830°E)
Time: 03:04:50
(UTC+02:00)

Transit 4A - Pass Details

Date: 27 July 2019
Orbit: 863 x 981 km, 66.8° (Epoch: 21 August)

Event Time Altitude Azimuth Distance (km) Brightness Sun altitude
Exits shadow 00:39:28 34° 143° (SE) 1,546 8.6 -21.2°
Maximum altitude 00:40:58 39° 113° (ESE) 1,431 8.6 -21.3°
Drops below altitude 10° 00:46:50 10° 47° (NE) 2,741 10.8 -21.4°
Sets 00:49:33 0° 40° (NE) 3,688 11.7 -21.4°
